South Haven, MI

5:07 PM EDT on September 28, 2016 (GMT -0400)
South Haven

Weather History for KLWA - October, 2012

Change the Weather History Date:

Tuesday, October 9, 2012

  Actual Average (KBIV) Record (KBIV)
Temperature  
Mean Temperature 54 °F 55 °F  
Max Temperature 64 °F 64 °F 84 °F (2010)
Min Temperature 45 °F 45 °F 25 °F (1989)
Degree Days  
Heating Degree Days 10 11  
Month to date heating degree days 86  
Since 1 July heating degree days 216  
Cooling Degree Days 0 1  
Month to date cooling degree days 9  
Year to date cooling degree days 691  
Growing Degree Days 4 (Base 50)    
Moisture  
Dew Point 37 °F    
Average Humidity 53    
Maximum Humidity 92    
Minimum Humidity 38    
Precipitation  
Precipitation 0.00 in 0.11 in 2.37 in (1958)
Month to date precipitation 0.88  
Year to date precipitation 27.99  
Sea Level Pressure  
Sea Level Pressure 29.92 in    
Wind  
Wind Speed 11 mph (SSW)    
Max Wind Speed 21 mph    
Max Gust Speed 29 mph    
Visibility 10 miles    
Events Rain    
T = Trace of Precipitation, MM = Missing Value Source: NWS Daily Summary

Daily Weather History Graph

Daily Weather History Graph

Search for Another Location

Airport or City:

Trip Planner

Search our weather history database for the weather conditions in past years. The results will help you decide how hot, cold, wet, or windy it might be!

Date:

Astronomy

Oct. 09, 2012 Rise Set
Actual Time 7:51 AM EDT 7:12 PM EDT
Civil Twilight 7:23 AM EDT 7:40 PM EDT
Nautical Twilight 6:50 AM EDT 8:12 PM EDT
Astronomical Twilight 6:18 AM EDT 8:45 PM EDT
Moon 1:20 AM EDT (10/9) 3:45 PM EDT (10/9)
Length of Visible Light 12h 16m
Length of Day
11h 20m
Last Quarter, 37% of the Moon is Illuminated
Oct 9
Last Quarter
Oct 15
New
Oct 21
First Quarter
Oct 29
Full
Nov 6
Last Quarter

Hourly Weather History & Observations

Time (EDT) Temp. Windchill Dew Point Humidity Pressure Visibility Wind Dir Wind Speed Gust Speed Precip Events Conditions
12:15 AM 49.1 °F - 30.6 °F 49% 30.04 in 10.0 mi South 9.2 mph - N/A   Clear
12:35 AM 48.9 °F - 30.6 °F 49% 30.04 in 10.0 mi South 10.4 mph - N/A   Clear
12:55 AM 48.4 °F - 30.9 °F 51% 30.04 in 10.0 mi South 8.1 mph 16.1 mph N/A   Clear
1:15 AM 47.5 °F - 31.3 °F 53% 30.04 in 10.0 mi South 10.4 mph - N/A   Clear
1:35 AM 46.9 °F - 31.3 °F 55% 30.03 in 10.0 mi South 8.1 mph - N/A   Clear
1:55 AM 46.4 °F 42.9 °F 31.5 °F 56% 30.03 in 10.0 mi South 6.9 mph - N/A   Clear
2:15 AM 45.5 °F 41.3 °F 31.8 °F 59% 30.03 in 10.0 mi South 8.1 mph - N/A   Clear
2:55 AM 45.5 °F 41.3 °F 32.0 °F 59% 30.02 in 10.0 mi South 8.1 mph - N/A   Clear
3:15 AM 45.5 °F 41.8 °F 32.0 °F 59% 30.02 in 10.0 mi South 6.9 mph - N/A   Clear
3:55 AM 45.3 °F 41.6 °F 32.5 °F 61% 30.02 in 10.0 mi South 6.9 mph - N/A   Clear
4:15 AM 45.7 °F 42.0 °F 32.4 °F 60% 30.02 in 10.0 mi South 6.9 mph - N/A   Clear
4:35 AM 46.6 °F - 32.5 °F 58% 30.01 in 10.0 mi SSW 9.2 mph - N/A   Clear
5:15 AM 46.6 °F - 32.9 °F 59% 30.00 in 10.0 mi SSW 6.9 mph - N/A   Clear
5:35 AM 46.4 °F 41.9 °F 32.9 °F 59% 30.00 in 10.0 mi South 9.2 mph - N/A   Clear
5:55 AM 46.0 °F 42.5 °F 33.1 °F 61% 30.00 in 10.0 mi South 6.9 mph - N/A   Clear
6:15 AM 45.5 °F 41.3 °F 33.4 °F 63% 30.00 in 10.0 mi South 8.1 mph - N/A   Clear
6:35 AM 45.0 °F 40.1 °F 33.8 °F 65% 29.99 in 10.0 mi South 9.2 mph - N/A   Clear
6:55 AM 45.5 °F 40.8 °F 33.8 °F 64% 29.99 in 10.0 mi South 9.2 mph - N/A   Clear
7:15 AM 45.5 °F 40.8 °F 34.0 °F 64% 29.99 in 10.0 mi South 9.2 mph - N/A   Clear
7:35 AM 45.7 °F 41.5 °F 34.0 °F 64% 29.99 in 10.0 mi South 8.1 mph - N/A   Clear
7:55 AM 46.0 °F 41.9 °F 34.5 °F 64% 29.99 in 10.0 mi South 8.1 mph 17.3 mph N/A   Clear
8:15 AM 46.8 °F - 34.7 °F 63% 29.99 in 10.0 mi South 10.4 mph 17.3 mph N/A   Mostly Cloudy
8:35 AM 47.3 °F - 34.7 °F 62% 29.98 in 10.0 mi South 10.4 mph 18.4 mph N/A   Scattered Clouds
8:55 AM 48.7 °F - 35.1 °F 59% 29.99 in 10.0 mi SSW 11.5 mph 16.1 mph N/A   Clear
9:15 AM 49.1 °F - 35.6 °F 60% 29.99 in 10.0 mi South 11.5 mph - N/A   Clear
9:35 AM 49.6 °F - 36.3 °F 60% 29.98 in 10.0 mi SSW 9.2 mph 16.1 mph N/A   Clear
9:55 AM 49.8 °F - 36.7 °F 61% 29.98 in 10.0 mi South 11.5 mph 18.4 mph N/A   Clear
10:15 AM 50.2 °F - 37.0 °F 61% 29.97 in 10.0 mi South 8.1 mph - N/A   Clear
10:35 AM 52.5 °F - 37.6 °F 57% 29.97 in 10.0 mi South 12.7 mph - N/A   Clear
10:55 AM 55.0 °F - 38.1 °F 53% 29.96 in 10.0 mi South 15.0 mph 23.0 mph N/A   Clear
11:15 AM 57.4 °F - 38.7 °F 50% 29.95 in 10.0 mi SSW 17.3 mph 23.0 mph N/A   Clear
11:35 AM 58.1 °F - 38.7 °F 48% 29.95 in 10.0 mi SSW 18.4 mph 25.3 mph N/A   Clear
11:55 AM 59.4 °F - 38.8 °F 47% 29.94 in 10.0 mi SSW 20.7 mph 27.6 mph N/A   Clear
12:15 PM 59.9 °F - 38.3 °F 45% 29.94 in 10.0 mi South 18.4 mph 23.0 mph N/A   Clear
12:35 PM 61.2 °F - 39.0 °F 44% 29.94 in 10.0 mi South 16.1 mph 20.7 mph N/A   Clear
12:55 PM 61.7 °F - 38.7 °F 43% 29.93 in 10.0 mi SSW 12.7 mph 23.0 mph N/A   Clear
1:15 PM 61.9 °F - 37.9 °F 41% 29.92 in 10.0 mi South 17.3 mph 25.3 mph N/A   Clear
1:35 PM 62.8 °F - 38.5 °F 41% 29.91 in 10.0 mi South 15.0 mph 23.0 mph N/A   Clear
1:55 PM 62.8 °F - 38.3 °F 40% 29.89 in 10.0 mi South 12.7 mph 23.0 mph N/A   Clear
2:15 PM 62.6 °F - 38.5 °F 41% 29.89 in 10.0 mi South 16.1 mph 24.2 mph N/A   Clear
2:35 PM 62.6 °F - 38.3 °F 41% 29.88 in 10.0 mi SSW 18.4 mph 25.3 mph N/A   Clear
2:55 PM 62.4 °F - 38.5 °F 41% 29.87 in 10.0 mi South 16.1 mph 23.0 mph N/A   Clear
3:15 PM 62.6 °F - 38.7 °F 41% 29.87 in 10.0 mi South 17.3 mph 24.2 mph N/A   Clear
3:35 PM 63.1 °F - 39.2 °F 41% 29.86 in 10.0 mi South 12.7 mph 21.9 mph N/A   Clear
3:55 PM 63.1 °F - 39.2 °F 41% 29.86 in 10.0 mi SSW 11.5 mph 21.9 mph N/A   Clear
4:15 PM 63.9 °F - 38.7 °F 39% 29.85 in 10.0 mi South 17.3 mph 21.9 mph N/A   Clear
4:35 PM 64.4 °F - 38.5 °F 38% 29.84 in 10.0 mi South 16.1 mph 23.0 mph N/A   Clear
4:55 PM 64.0 °F - 38.7 °F 39% 29.84 in 10.0 mi SSW 11.5 mph 21.9 mph N/A   Clear
5:15 PM 64.4 °F - 39.0 °F 39% 29.84 in 10.0 mi SSW 12.7 mph 20.7 mph N/A   Scattered Clouds
5:35 PM 64.0 °F - 39.0 °F 40% 29.84 in 10.0 mi SSW 15.0 mph 23.0 mph N/A   Scattered Clouds
5:55 PM 63.5 °F - 39.0 °F 41% 29.83 in 10.0 mi SSW 12.7 mph 20.7 mph N/A   Clear
6:15 PM 63.1 °F - 39.4 °F 42% 29.82 in 10.0 mi SSW 10.4 mph 18.4 mph N/A   Clear
6:35 PM 63.0 °F - 39.0 °F 41% 29.82 in 10.0 mi SSW 12.7 mph 19.6 mph N/A   Clear
6:55 PM 62.1 °F - 39.4 °F 43% 29.82 in 10.0 mi South 8.1 mph - N/A   Clear
7:15 PM 61.5 °F - 40.1 °F 45% 29.83 in 10.0 mi SSW 9.2 mph - N/A   Clear
7:35 PM 60.8 °F - 40.1 °F 46% 29.83 in 10.0 mi SSW 8.1 mph - N/A   Clear
7:55 PM 60.8 °F - 39.9 °F 46% 29.83 in 10.0 mi SSW 10.4 mph - N/A   Clear
8:15 PM 60.4 °F - 40.1 °F 47% 29.82 in 10.0 mi South 6.9 mph - N/A   Scattered Clouds
8:35 PM 60.3 °F - 40.1 °F 47% 29.82 in 10.0 mi SSW 10.4 mph - N/A   Clear
8:55 PM 60.4 °F - 40.1 °F 47% 29.82 in 10.0 mi SSW 10.4 mph 17.3 mph N/A   Clear
9:15 PM 60.6 °F - 40.3 °F 47% 29.81 in 10.0 mi SSW 9.2 mph 18.4 mph N/A   Mostly Cloudy
9:35 PM 60.4 °F - 40.5 °F 48% 29.80 in 10.0 mi SSW 11.5 mph 18.4 mph N/A   Overcast
9:55 PM 60.4 °F - 40.6 °F 48% 29.80 in 10.0 mi SSW 12.7 mph 19.6 mph N/A   Overcast
10:15 PM 60.1 °F - 41.0 °F 49% 29.79 in 10.0 mi SSW 13.8 mph 17.3 mph N/A   Overcast
10:35 PM 58.3 °F - 46.8 °F 66% 29.83 in 10.0 mi NW 16.1 mph 28.8 mph N/A   Overcast
10:55 PM 51.1 °F - 47.1 °F 86% 29.85 in 5.0 mi NNW 15.0 mph 27.6 mph N/A Rain Light Rain
11:15 PM 50.5 °F - 47.7 °F 90% 29.86 in 4.0 mi NW 10.4 mph 20.7 mph N/A Rain Rain
11:35 PM 49.5 °F - 47.3 °F 92% 29.86 in 2.5 mi NNW 15.0 mph 26.5 mph N/A Rain Rain
11:55 PM 48.4 °F - 45.7 °F 90% 29.88 in 4.0 mi NNW 13.8 mph 20.7 mph N/A Rain Rain